Regional Weather Roundup
Issued by NWS

Home | Current Version | Previous Version | Graphics & Text | Print | Product List | Glossary On
Versions: 1 2 3 4 5 6 7 8 9 10 11 12 13 14 15 16 17 18 19 20 21 22 23 24 25 26 27 28 29 30 31 32 33 34 35 36 37 38 39 40 41 42 43 44 45 46 47 48 49 50
000
ASUS43 KMKX 041821
RWRWI

WISCONSIN REGIONAL WEATHER ROUNDUP
NATIONAL WEATHER SERVICE MILWAUKEE/SULLIVAN WI
100 PM CDT SAT JUL 04 2015

NOTE: "FAIR" INDICATES FEW OR NO CLOUDS BELOW 12,000 FEET WITH NO
SIGNIFICANT WEATHER AND/OR OBSTRUCTIONS TO VISIBILITY.

WIZ001-002-006>008-014>016-023>028-041900-
NORTHWEST WISCONSIN

CITY           SKY/WX    TMP DP  RH WIND       PRES   REMARKS
SUPERIOR ARPT  SUNNY     67  61  79 E8        29.96S
6HR MIN TEMP:  61; 6HR MAX TEMP:  67;

ASHLAND        SUNNY     74  66  76 N7        29.96F
6HR MIN TEMP:  56; 6HR MAX TEMP:  74;

HAYWARD        MOSUNNY   80  55  42 SE6       29.96S HX  80
6HR MIN TEMP:  54; 6HR MAX TEMP:  81;

SIREN          SUNNY     82  55  39 SE5       29.95S HX  81
6HR MIN TEMP:  57; 6HR MAX TEMP:  83;

CUMBERLAND     SUNNY     79  59  50 S3        29.96S HX  80
RICE LAKE      SUNNY     78  59  51 CALM      29.97S HAZE
6HR MIN TEMP:  58; 6HR MAX TEMP:  79;

CHETEK         NOT AVBL
LADYSMITH      MOSUNNY   80  59  48 CALM      29.98S HX  81
6HR MIN TEMP:  58; 6HR MAX TEMP:  81;

EAU CLAIRE     SUNNY     80  62  54 SW5       29.95S HAZE    HX  81
6HR MIN TEMP:  62; 6HR MAX TEMP:  80;

MENOMONIE      SUNNY     81  63  54 CALM      29.95F HAZE    HX  82
6HR MIN TEMP:  61; 6HR MAX TEMP:  81;

NEW RICHMOND   PTSUNNY   80  64  57 S6        29.96S HAZE    HX  81
6HR MIN TEMP:  60; 6HR MAX TEMP:  80;

OSCEOLA        MOSUNNY   80  63  55 SW5       29.97S HX  82
6HR MIN TEMP:  60; 6HR MAX TEMP:  81;

$$

WIZ003>005-009-010-017-018-041900-
NORTH CENTRAL WISCONSIN

CITY           SKY/WX    TMP DP  RH WIND       PRES   REMARKS
MANITOWISH WTR MOSUNNY   74  54  49 N3        29.99R
6HR MIN TEMP:  56; 6HR MAX TEMP:  76;

ARBOR VITAE    SUNNY     77  58  51 CALM      29.98F
6HR MIN TEMP:  57; 6HR MAX TEMP:  77;

WOODRUFF       SUNNY     77  58  51 CALM      29.98F
6HR MIN TEMP:  57; 6HR MAX TEMP:  77;

RHINELANDER    MOSUNNY   80  51  36 CALM      29.99S HX  80
6HR MIN TEMP:  58; 6HR MAX TEMP:  80;

EAGLE RIVER    MOSUNNY   77  54  44 CALM      29.98S
LAND O LAKES   MOSUNNY   77  52  41 CALM      30.00S
6HR MIN TEMP:  53; 6HR MAX TEMP:  77;

PHILLIPS       SUNNY     79  57  47 S6        29.97S HX  80
6HR MIN TEMP:  56; 6HR MAX TEMP:  78;

TOMAHAWK       SUNNY     77  55  45 CALM      29.98F
6HR MIN TEMP:  54; 6HR MAX TEMP:  77;

MEDFORD        MOSUNNY   77  60  55 CALM      29.98F
6HR MIN TEMP:  57; 6HR MAX TEMP:  77;

MERRILL        SUNNY     78  58  50 SW3       29.98S
6HR MIN TEMP:  55; 6HR MAX TEMP:  79;

$$

WIZ029-030-035-036-043>047-041900-
CENTRAL WISCONSIN

CITY           SKY/WX    TMP DP  RH WIND       PRES   REMARKS
WAUSAU         MOSUNNY   78  59  51 S5        29.96S
6HR MIN TEMP:  60; 6HR MAX TEMP:  79;

MOSINEE        MOSUNNY   77  63  61 VRB5      29.99S
MARSHFIELD     MOSUNNY   80  61  52 VRB3      29.98S HX  81
6HR MIN TEMP:  62; 6HR MAX TEMP:  80;

STEVENS POINT  MOSUNNY   76  60  58 CALM      29.98S
6HR MIN TEMP:  57; 6HR MAX TEMP:  77;

WAUPACA        PTSUNNY   82  63  53 S7        29.98S HX  83
6HR MIN TEMP:  61; 6HR MAX TEMP:  82;

WAUTOMA        MOSUNNY   81  61  50 VRB7      29.98F HX  82
6HR MIN TEMP:  60; 6HR MAX TEMP:  82;

WISC RAPIDS    SUNNY     80  62  54 W7        29.99S HX  81
6HR MIN TEMP:  62; 6HR MAX TEMP:  80;

CAMP DOUGLAS   MOSUNNY   79  66  63 SE3       29.97S HX  81
6HR MIN TEMP:  59; 6HR MAX TEMP:  80;

$$

WIZ011>013-019>022-031-037>040-048>050-041900-
NORTHEAST WISCONSIN

CITY           SKY/WX    TMP DP  RH WIND       PRES   REMARKS
ANTIGO         MOSUNNY   77  60  56 S3        29.99S
SHAWANO        SUNNY     79  63  56 NE6       29.98R HX  81
6HR MIN TEMP:  63; 6HR MAX TEMP:  80;

OCONTO         SUNNY     76  64  65 E6        29.98R
6HR MIN TEMP:  60; 6HR MAX TEMP:  77;

STURGEON BAY   SUNNY     72  61  68 SE7       30.01S
6HR MIN TEMP:  63; 6HR MAX TEMP:  72;

GREEN BAY      MOSUNNY   79  63  57 E3        29.98R HX  80
6HR MIN TEMP:  63; 6HR MAX TEMP:  80;

MANITOWOC      SUNNY     72  63  73 MISG      29.99R
6HR MIN TEMP:  66; 6HR MAX TEMP:  75;

APPLETON       PTSUNNY   75  59  57 SW5       29.99R
CLINTONVILLE   MOSUNNY   79  61  53 CALM      29.97S HX  80
OSHKOSH        MOSUNNY   78  61  55 SW7       29.98S HX  80
6HR MIN TEMP:  65; 6HR MAX TEMP:  79;

$$

WIZ032>034-041-042-053>061-041900-
SOUTHWEST WISCONSIN

CITY           SKY/WX    TMP DP  RH WIND       PRES   REMARKS
LA CROSSE      SUNNY     81  59  47 SE9       29.96F HX  81
6HR MIN TEMP:  63; 6HR MAX TEMP:  81;

SPARTA         MOSUNNY   82  57  43 W7        29.98S HX  82
6HR MIN TEMP:  58; 6HR MAX TEMP:  82;

VIROQUA        SUNNY     79  60  51 S7        30.00S HX  80
6HR MIN TEMP:  61; 6HR MAX TEMP:  79;

BOSCOBEL       SUNNY     81  59  47 VRB7      29.99S HX  81
6HR MIN TEMP:  58; 6HR MAX TEMP:  82;

PRAIRIE DU CHI SUNNY     80  58  47 S5        29.98F HX  80
6HR MIN TEMP:  57; 6HR MAX TEMP:  80;

PLATTEVILLE    SUNNY     78  59  53 W7        30.01S
6HR MIN TEMP:  58; 6HR MAX TEMP:  78;

$$

WIZ056-057-062-063-064-067-068-041900-
SOUTH CENTRAL WISCONSIN

CITY           SKY/WX    TMP DP  RH WIND       PRES   REMARKS
REEDSBURG      SUNNY     79  60  51 SW5       29.98S HX  80
6HR MIN TEMP:  57; 6HR MAX TEMP:  79;

BARABOO/DELLS  SUNNY     79  57  46 SW3       29.99S HX  80
6HR MIN TEMP:  60; 6HR MAX TEMP:  79;

LONE ROCK      SUNNY     80  59  48 VRB5      29.99F HX  81
6HR MIN TEMP:  56; 6HR MAX TEMP:  80;

MINERAL POINT  SUNNY     79  55  44 SW7       30.01S
MADISON        MOSUNNY   79  57  46 VRB7      29.99S HX  80
6HR MIN TEMP:  60; 6HR MAX TEMP:  79;

MIDDLETON      SUNNY     79  54  41 CALM      30.00S HX  80
6HR MIN TEMP:  61; 6HR MAX TEMP:  80;

WATERTOWN      SUNNY     78  60  54 S5        29.99S
6HR MIN TEMP:  57; 6HR MAX TEMP:  78;

MONROE         SUNNY     79  59  50 SW5       30.00F HX  80
JANESVILLE     MOSUNNY   79  59  50 SW8       29.99F HX  80
$$

WIZ051-052-058>065-066-070>072-041900-
SOUTHEAST WISCONSIN

CITY           SKY/WX    TMP DP  RH WIND       PRES   REMARKS
MILWAUKEE      MOSUNNY   79  58  48 CALM      29.99S HX  80
6HR MIN TEMP:  65; 6HR MAX TEMP:  80;

WAUKESHA       MOSUNNY   75  57  53 SW6       30.01S
MILWAUKEE/TIMM SUNNY     79  54  41 MISG      30.00S
RACINE         SUNNY     79  60  52 SE10      30.01S HX  80
6HR MIN TEMP:  62; 6HR MAX TEMP:  79;

BURLINGTON     MOSUNNY   77  60  55 S3        30.00S
6HR MIN TEMP:  54; 6HR MAX TEMP:  77;

KENOSHA        MOSUNNY   78  60  53 S3        30.00F
6HR MIN TEMP:  60; 6HR MAX TEMP:  79;

FOND DU LAC    PTSUNNY   80  62  54 CALM      29.98F HX  81
6HR MIN TEMP:  62; 6HR MAX TEMP:  80;

SHEBOYGAN      PTSUNNY   79  61  53 NW7       29.98S HX  80
6HR MIN TEMP:  63; 6HR MAX TEMP:  80;

WEST BEND      MOSUNNY   79  57  47 SE5       29.99S HX  80
JUNEAU         SUNNY     76  60  57 SW5       30.01S
6HR MIN TEMP:  58; 6HR MAX TEMP:  76;

$$

LSZ147-162-041900-
LAKE SUPERIOR

STATION/POSITION TIME  TEMP    WIND        PRES    WAVE
                       AIR SEA DIR/SP/G            HT/PER
                 (UTC) (F)     (DEG/KT/KT) (MB)    (FT/S)
W MID LAKE BUOY  1750   42 39   50/  6/  8 1015.7F   0
DEVILS ISLAND    1800   58      60/  8/ 10 1015.3F
SAXON HARBOR     1740   63        CALM     1014.9S
$$

LMZ867-665-643>646-041900-
LAKE MICHIGAN

STATION/POSITION TIME  TEMP    WIND        PRES    WAVE
                       AIR SEA DIR/SP/G            HT/PER
                 (UTC) (F)     (DEG/KT/KT) (MB)    (FT/S)
CHAMBERS ISLAND  1700   68     360/  5/  6 1015.2S
S GREEN BAY BUOY 1730   68 70   30/ 10/ 12 1016.5



USA.gov is the U.S. government's official web portal to all federal, state and local government web resources and services.